Tracking 27107 objects as of 20-Mar-2023
HD Live streaming from Space Station
objects crossing your sky now

STARLINK-2421

Track STARLINK-2421 now!
10-day predictions
STARLINK-2421 is classified as:


NORAD ID: 48098
Int'l Code: 2021-027G
Perigee: 553.6 km
Apogee: 555.1 km
Inclination: 53.1 °
Period: 95.6 minutes
Semi major axis: 6925 km
RCS: Unknown
Launch date: April 7, 2021
Source: United States (US)
Launch site: AIR FORCE EASTERN TEST RANGE (AFETR)
Your satellite tracking list
Your tracking list is empty




NASA's NSSDC Master Catalog

Two Line Element Set (TLE):
1 48098U 21027G   23079.13733538  .00030565  00000-0  20618-2 0  9993
2 48098  53.0558 354.8510 0001139 109.8186 250.2926 15.06403312108594
Source of the keplerian elements: AFSPC